Regional Weather Roundup
Issued by NWS

Home | Current Version | Previous Version | Graphics & Text | Print | Product List | Glossary Off
Versions: 1 2 3 4 5 6 7 8 9 10 11 12 13 14 15 16 17 18 19 20 21 22 23 24 25 26 27 28 29 30 31 32 33 34 35 36 37 38 39 40 41 42 43 44 45 46 47 48 49 50

000
ASUS43 KTOP 232108
RWRKS

WEATHER ROUNDUP FOR KANSAS
NATIONAL WEATHER SERVICE GOODLAND KS
400 PM CDT MON OCT 23 2017

NOTE:  "FAIR" INDICATES FEW OR NO CLOUDS BELOW 12,000 FEET WITH NO
SIGNIFICANT WEATHER AND/OR OBSTRUCTIONS TO VISIBILITY.

KSZ001>006-013>018-027>032-041>047-232200-
NORTHWEST KANSAS

CITY           SKY/WX    TMP DP  RH WIND       PRES   REMARKS
GOODLAND       SUNNY     59  20  22 N23G40    30.31S
HAYS           SUNNY     64  25  22 NW22G33   30.20S
HILL CITY      MOSUNNY   64  17  16 NW28G43   30.24S
RUSSELL        SUNNY     67  24  19 N26G40    30.17F
$$

KSZ061>065-074>080-084>089-232200-
SOUTHWEST KANSAS

CITY           SKY/WX    TMP DP  RH WIND       PRES   REMARKS
DODGE CITY     SUNNY     66  25  21 N20G37    30.24S
ELKHART          N/A     62  31  31 NW16        N/A
GARDEN CITY    SUNNY     65  21  18 N25G38    30.27F
GREAT BEND     SUNNY     64  25  22 N25G36    30.20R
LIBERAL        SUNNY     66  32  28 N23       30.28F
PRATT          MOSUNNY   65  26  22 N24G30    30.20R
$$

KSZ066>073-081>083-090>101-232200-
SOUTHEAST KANSAS

CITY           SKY/WX    TMP DP  RH WIND       PRES   REMARKS
CHANUTE        MOSUNNY   70  37  29 NW20G29   30.03R
COFFEYVILLE    SUNNY     71  44  37 NW15      30.03R
HUTCHINSON     SUNNY     67  26  21 NW24G35   30.14R
MEDICINE LODGE   N/A     71  22  15 N18G35    30.17R
NEWTON         SUNNY     67  29  24 NW22G32   30.12R
PARSONS        SUNNY     73  42  32 NW15G26   30.03S
WICHITA INTL   MOSUNNY   68  24  19 N28G39    30.13R
WICHITA JABRA  SUNNY     68  27  21 NW23G37   30.12R
WICHITA MCCONL MOSUNNY   69  22  17 N24G36    30.12R
WINFIELD       SUNNY     70  36  28 N24G35    30.11R
$$

KSZ007>012-019>026-033>040-048>060-102>105-232200-
NORTHEAST KANSAS

CITY           SKY/WX    TMP DP  RH WIND       PRES   REMARKS
CONCORDIA      SUNNY     66  27  23 NW25G36   30.12S
EMPORIA        SUNNY     66  33  29 NW22G31   30.08R
LAWRENCE       SUNNY     66  39  37 NW24      30.00S
MANHATTAN      SUNNY     68  30  24 N14G30    30.08S
MARYSVILLE     SUNNY     64  30  27 NW32G43   30.06R
OLATHE IND     SUNNY     64  37  36 NW24G37   30.00R
OLATHE EXE     CLOUDY    64  37  36 NW15G29   29.99R
SALINA         SUNNY     69  31  24 N31G41    30.13R
TOPEKA BILLARD SUNNY     67  36  31 NW22G35   30.02S
TOPEKA FORBES  SUNNY     68  35  29 NW31G40   30.02F
$$




USA.gov is the U.S. government's official web portal to all federal, state and local government web resources and services.